Weather History for Green Bay, WI

Change the Weather History Date:

Monday, December 19, 2011

  Actual Average Record
Temperature  
Mean Temperature 36 °F 20 °F  
Max Temperature 40 °F 27 °F 51 °F (1918)
Min Temperature 31 °F 13 °F -27 °F (1983)
Degree Days  
Heating Degree Days 29 45  
Month to date heating degree days 664 794  
Since 1 July heating degree days 2098 2534  
Cooling Degree Days 0 0  
Month to date cooling degree days 0 0  
Year to date cooling degree days 591 398  
Moisture  
Dew Point 27 °F    
Average Humidity 74    
Maximum Humidity 92    
Minimum Humidity 56    
Precipitation  
Precipitation 0.00 in 0.04 in 0.54 in (1968)
Month to date precipitation 1.24 1.00  
Year to date precipitation 37.69 29.01  
Snow  
Snow 0.00 in 0.40 in 5.90 in (1968)
Month to date snowfall 0.2 8.0  
Since 1 July snowfall 2.2 12.2  
Snow Depth 0.00 in    
Sea Level Pressure  
Sea Level Pressure 30.00 in    
Wind  
Wind Speed 8 mph (NNW)    
Max Wind Speed 16 mph    
Max Gust Speed 20 mph    
Visibility 10 miles    
Events      
T = Trace of Precipitation, MM = Missing Value Source: NWS Daily Summary

Daily Weather History Graph

Daily Weather History Graph

Search for Another Location

Airport:

Trip Planner

Search our weather history database for the weather conditions in past years. The results will help you decide how hot, cold, wet, or windy it might be!

Date:

Astronomy

Dec. 19, 2011 Rise Set
Actual Time 7:24 AM CST 4:14 PM CST
Civil Twilight 6:51 AM CST 4:48 PM CST
Nautical Twilight 6:14 AM CST 5:24 PM CST
Astronomical Twilight 5:38 AM CST 6:00 PM CST
Moon 1:25 AM CST (12/19) 12:20 PM CST (12/19)
Length of Visible Light 9h 57m
Length of Day
8h 50m
Waning Crescent, 31% of the Moon is Illuminated
Dec 19
Waning Crescent
Dec 24
New
Jan 1
First Quarter
Jan 9
Full
Jan 16
Last Quarter

Hourly Weather History & Observations

Time (CST) Temp. Windchill Dew Point Humidity Pressure Visibility Wind Dir Wind Speed Gust Speed Precip Events Conditions
12:53 AM 39.0 °F 32.3 °F 32.0 °F 76% 29.71 in 10.0 mi SW 10.4 mph - N/A   Clear
1:53 AM 37.4 °F 32.1 °F 32.0 °F 81% 29.70 in 10.0 mi SW 6.9 mph - N/A   Clear
2:53 AM 37.0 °F 32.4 °F 32.0 °F 82% 29.74 in 10.0 mi SW 5.8 mph - N/A   Clear
3:53 AM 37.0 °F 32.4 °F 32.0 °F 82% 29.76 in 9.0 mi SW 5.8 mph - N/A   Clear
4:53 AM 36.0 °F 32.1 °F 32.0 °F 86% 29.77 in 8.0 mi WSW 4.6 mph - N/A   Clear
5:53 AM 35.1 °F 30.1 °F 30.9 °F 85% 29.80 in 8.0 mi West 5.8 mph - N/A   Clear
6:53 AM 32.0 °F 26.4 °F 30.0 °F 92% 29.85 in 6.0 mi West 5.8 mph - N/A   Clear
7:53 AM 34.0 °F 28.8 °F 30.0 °F 85% 29.88 in 8.0 mi NNW 5.8 mph - N/A   Scattered Clouds
8:01 AM 35.6 °F 30.7 °F 30.2 °F 81% 29.86 in 8.0 mi NNW 5.8 mph - N/A   Mostly Cloudy
8:18 AM 33.8 °F 30.8 °F 30.2 °F 87% 29.87 in 9.0 mi NNW 3.5 mph - N/A   Scattered Clouds
8:53 AM 37.0 °F 32.4 °F 30.9 °F 79% 29.93 in 9.0 mi NW 5.8 mph - N/A   Clear
9:53 AM 39.9 °F 33.9 °F 32.0 °F 73% 29.97 in 10.0 mi NNW 9.2 mph - N/A   Scattered Clouds
10:53 AM 39.0 °F 31.4 °F 30.9 °F 73% 30.01 in 10.0 mi NNW 12.7 mph - N/A   Overcast
11:53 AM 39.2 °F 33.0 °F 28.4 °F 65% 29.99 in 10.0 mi NNW 9.2 mph - N/A   Overcast
12:18 PM 37.4 °F 29.8 °F 28.4 °F 70% 30.00 in 10.0 mi North 11.5 mph - N/A   Overcast
12:51 PM 37.4 °F 30.3 °F 26.6 °F 65% 30.01 in 10.0 mi NNW 10.4 mph - N/A   Overcast
12:53 PM 37.9 °F 30.9 °F 27.0 °F 65% 30.04 in 10.0 mi NNW 10.4 mph - N/A   Overcast
1:53 PM 37.0 °F 28.5 °F 24.1 °F 59% 30.07 in 10.0 mi North 13.8 mph - N/A   Overcast
2:53 PM 36.0 °F 28.5 °F 23.0 °F 59% 30.10 in 10.0 mi NNW 10.4 mph - N/A   Overcast
3:53 PM 36.0 °F 29.0 °F 21.0 °F 55% 30.12 in 10.0 mi North 9.2 mph - N/A   Overcast
4:53 PM 35.1 °F 28.6 °F 21.9 °F 59% 30.16 in 10.0 mi North 8.1 mph - N/A   Overcast
5:53 PM 34.0 °F 29.8 °F 23.0 °F 64% 30.20 in 10.0 mi NNE 4.6 mph - N/A   Overcast
6:53 PM 34.0 °F 28.0 °F 21.9 °F 61% 30.23 in 10.0 mi NNE 6.9 mph - N/A   Overcast
7:53 PM 33.1 °F 25.5 °F 21.9 °F 64% 30.25 in 10.0 mi NNE 9.2 mph - N/A   Overcast
8:53 PM 32.0 °F 24.2 °F 21.0 °F 64% 30.26 in 10.0 mi NE 9.2 mph - N/A   Overcast
9:53 PM 32.0 °F 24.8 °F 21.0 °F 64% 30.26 in 10.0 mi NE 8.1 mph - N/A   Overcast
10:53 PM 32.0 °F 27.5 °F 19.0 °F 59% 30.26 in 10.0 mi NNE 4.6 mph - N/A   Overcast
11:53 PM 30.9 °F 25.2 °F 18.0 °F 59% 30.26 in 10.0 mi East 5.8 mph - N/A   Overcast